Regional Weather Roundup
Issued by NWS

Home | Current Version | Previous Version | Graphics & Text | Print | Product List | Glossary On
Versions: 1 2 3 4 5 6 7 8 9 10 11 12 13 14 15 16 17 18 19 20 21 22 23 24 25 26 27 28 29 30 31 32 33 34 35 36 37 38 39 40 41 42 43 44 45 46 47 48 49 50
000
ASUS43 KLMK 051702
RWRKY
KENTUCKY REGIONAL WEATHER ROUNDUP
NATIONAL WEATHER SERVICE LOUISVILLE KY
100 PM EDT SUN JUL 05 2015

NOTE "FAIR" INDICATES FEW OR NO CLOUDS BELOW 12,000 FEET
WITH NO SIGNIFICANT WEATHER AND/OR OBSTRUCTIONS TO VISIBILITY.

KYZ001>023-026-027-061>063-070>075-051800-
WESTERN AND SOUTH CENTRAL KENTUCKY

CITY           SKY/WX    TMP DP  RH WIND       PRES   REMARKS
PADUCAH        MOSUNNY   80  66  62 S3        30.08R
HENDERSON      PTSUNNY   79  66  65 CALM      30.06S
OWENSBORO      PTSUNNY   79  72  79 W6        30.07S HAZE
HOPKINSVILLE   MOSUNNY   81  68  65 W5        30.07S
BOWLING GREEN  CLOUDY    77  69  76 W6        30.07S
GLASGOW        NOT AVBL
$$

KYZ024-025-028>034-038-045-046-053-051800-
NORTH CENTRAL KENTUCKY

CITY           SKY/WX    TMP DP  RH WIND       PRES   REMARKS
LOUISVILLE/SDF CLOUDY    78  66  66 E6        30.07F
LOUISVILLE/LOU CLOUDY    76  66  71 VRB3      30.09S
FORT KNOX      NOT AVBL
$$

KYZ035>037-039>044-047>052-055>060-089>105-051800-
NORTHEAST KENTUCKY

CITY           SKY/WX    TMP DP  RH WIND       PRES   REMARKS
LEXINGTON      CLOUDY    73  67  81 CALM      30.09F
COVINGTON      CLOUDY    75  61  61 E7        30.11F
FRANKFORT      CLOUDY    74  62  66 NE6       30.08F
$$

KYZ054-064>069-076>088-106>120-051800-
SOUTHEAST KENTUCKY

CITY           SKY/WX    TMP DP  RH WIND       PRES   REMARKS
JACKSON        CLOUDY    70  68  93 CALM      30.10S
LONDON         LGT RAIN  70  65  84 N8        30.08S
SOMERSET       NOT AVBL
MIDDLESBORO    DRIZZLE   71  69  94 S6        30.07S
MONTICELLO     CLOUDY    73  71  93 NE7       30.11S FOG
$$



USA.gov is the U.S. government's official web portal to all federal, state and local government web resources and services.